Regional Weather Roundup
Issued by NWS Kansas City/Pleasant Hill, MO

Home | Current Version | Previous Version | Graphics & Text | Print | Product List | Glossary Off
Versions: 1 2 3 4 5 6 7 8 9 10 11 12 13 14 15 16 17 18 19 20 21 22 23 24 25 26 27 28 29 30 31 32 33 34 35 36 37 38 39 40 41 42 43 44 45 46 47 48 49 50

074
ASUS43 KEAX 261410
RWREAX

WEATHER ROUNDUP FOR EASTERN KANSAS AND NORTHWEST MISSOURI
NATIONAL WEATHER SERVICE KANSAS CITY/PLEASANT HILL MO
900 AM CDT WED APR 26 2017

KSZ040-057-103>105-MOZ028-029-037-043-261500-
...KANSAS CITY METROPOLITAN AREA...

CITY           SKY/WX    TMP DP  RH WIND       PRES   REMARKS
K.C. INTL      CLOUDY    41  38  89 NW13      29.63R WCI  34
K.C. DOWNTOWN  CLOUDY    44  40  85 NW8G18    29.63R
LEES SUMMIT    CLOUDY    43  42  97 NW16      29.61R
OLATHE - IXD   CLOUDY    41  38  89 NW23G31   29.63R WCI  31
OLATHE - OJC   CLOUDY    41  40  96 N12       29.61R WCI  34
LAWRENCE       CLOUDY    43  39  86 NW18G24   29.64R WCI  35

$$

MOZ001>008-011>017-020>025-030>033-038>040-044>046-053-054-261500-
...NORTHERN AND CENTRAL MISSOURI...

CITY           SKY/WX    TMP DP  RH WIND       PRES   REMARKS
ST. JOSEPH     CLOUDY    41  39  93 NW20G28   29.63S WCI  32
WHITEMAN AFB   CLOUDY    46  46 100 N10       29.57R FOG
CLINTON        CLOUDY    46  46 100 NW9       29.57F FOG
SEDALIA        CLOUDY    49  48  97 NW10      29.57S
WARSAW         NOT AVBL
CHILLICOTHE      N/A     44  42  93 NW7G20    29.60R
KIRKSVILLE     CLOUDY    48  46  93 NW14      29.54R

$$

MOZ041-047>049-056>058-063>065-088>090-097-261500-
...EASTERN AND SOUTHERN MISSOURI...

CITY           SKY/WX    TMP DP  RH WIND       PRES   REMARKS
ST. LOUIS INTL PTSUNNY   68  56  65 SW9       29.52R
SPIRIT OF STL  PTSUNNY   66  58  75 SW8       29.51R
COLUMBIA       CLOUDY    55  55 100 NW10      29.52S FOG
JEFFERSON CITY CLOUDY    61  56  83 NW10      29.53R
ROLLA          LGT RAIN  58  57  97 W10       29.54R
OSAGE BEACH    LGT RAIN  58  57  97 CALM      29.53S
SPRINGFIELD    LGT RAIN  59  58  96 CALM      29.53R
BRANSON        TSTM      57  57 100 SE13G20   29.55S
JOPLIN         LGT RAIN  49  48  97 N13       29.58S FOG
WEST PLAINS    CLOUDY    64  57  78 SW3       29.57F

$$

IAZ060-094-KSZ022-034>040-054-083-096-NEZ052-066-093-261500-
...KANSAS...SOUTHEAST NEBRASKA AND IOWA...

CITY           SKY/WX    TMP DP  RH WIND       PRES   REMARKS
TOPEKA         CLOUDY    42  36  79 NW17G29   29.65S WCI  34
MANHATTAN      CLOUDY    42  33  70 N9G18     29.71R
EMPORIA        CLOUDY    41  37  86 N18G29    29.65R WCI  32
CHANUTE        CLOUDY    45  39  79 N16       29.61R
WICHITA        CLOUDY    44  36  73 N22G33    29.67R
OMAHA          CLOUDY    37  31  78 NW21      29.66S WCI  26
LINCOLN        CLOUDY    39  30  70 N21G29    29.70F WCI  29
FALLS CITY     CLOUDY    40  33  76 NW15G28   29.65F WCI  32
LAMONI         CLOUDY    41  39  93 NW21G29   29.56F WCI  32
DES MOINES     CLOUDY    43  40  89 NW16      29.55R

$$





USA.gov is the U.S. government's official web portal to all federal, state and local government web resources and services.